CHINASAT 2C (ZX 2C) (41021 NORAD) Tracking and Keplerian Element Data

This shows tracking and keplerian element data for the satellite.

Feedback or suggestion? Click here.




ElementValue
Catalog41021
NameCHINASAT 2C (ZX 2C)
Epoch Orbit1282
Epoch Day113.69910578
Epoch Year2019
RAAN341.5191
Inclination0.0272
Eccentricity0.000352
Argument of Perigee64.0158
Mean Anonmoly160.9694
Mean Motion1.00269228
Decay Rate-3.39E-06
L11 41021U 15063A 19113.69910578 -.00000339 00000-0 00000+0 0 9998
L22 41021 0.0272 341.5191 0003520 64.0158 160.9694 1.00269228 12827

Live tracking and technical data element details for CHINASAT 2C (ZX 2C) (NORAD 41021). CHINASAT 2C (ZX 2C) can be tracked NOW for your location showing map with azimuth and elevation plus other details from your city location.

Track the satellite on the map from your city or location and see movement details for azimuth, elevation, latitude, longitude, range, height, and movement on the map or in text.







IsCatalogInMostPopularTable: catalog: 41021, numindb: 215
Update: records affected: 1



GetName: 41021 CHINASAT 2C (ZX 2C)

Hit Count: updated at: Wed, 24 Apr 2019 18:19:49 GMT